Home   Weather   Reading   Past weeks
Flag for United Kingdom

Past Weather in Reading, England, United Kingdom — Yesterday and Last 2 Weeks

Now
54 °F

Light rain. Partly sunny.


Feels Like: 49 °F
Forecast: 54 / 49 °F
Wind: 14 mph from Southeast

Location: Benson

Current Time: Oct 17, 2019 at 12:10:27 pm

Latest Report: Oct 17, 2019 at 11:21 am


Visibility: N/A

Pressure: 29.68 "Hg

Humidity: 82%

Dew Point: 48 °F

Location of ReadingLocation

Past Weather in Reading — Graph

°F

Reading Temperature Yesterday

Maximum temperature yesterday: 59 °F (at 2:20 pm)
Minimum temperature yesterday: 39 °F (at 8:50 pm)
Average temperature yesterday: 53 °F

High & Low Weather Summary for the Past Weeks

 TemperatureHumidityPressure
High63 °F (Oct 8, 1:20 pm)100% (Oct 2, 10:20 pm)30.18 "Hg (Oct 2, 10:20 pm)
Low32 °F (Oct 3, 6:50 am)54% (Oct 2, 5:50 pm)29.47 "Hg (Oct 13, 8:50 am)
Average53 °F86%29.77 "Hg
* Reported Oct 2 10:20 am — Oct 17 10:50 am, Reading. Weather by CustomWeather, © 2019

Note: Actual official high and low records may vary slightly from our data, if they occured in-between our weather recording intervals... More about our weather records

Advertising

Reading Weather History for the Previous 24 Hours

Scroll right to see more
 ConditionsComfort  
Time TempWeatherWind HumidityBarometerVisibility
10:50 am
Thu, Oct 17
54 °FPartly sunny.10 mph82%29.68 "HgN/A
10:20 am52 °FScattered clouds.8 mph88%29.68 "HgN/A
9:50 am52 °FScattered clouds.7 mph88%29.71 "HgN/A
9:20 am52 °FPassing clouds.6 mph88%29.71 "HgN/A
8:50 am50 °FSunny.5 mph88%29.71 "Hg10 mi
8:21 am48 °FSunny.5 mph94%29.71 "Hg10 mi
7:50 am43 °FSunny.2 mph100%29.71 "Hg10 mi
6:50 am45 °FClear.6 mph100%29.71 "Hg10 mi
6:21 am45 °FClear.5 mph100%29.71 "Hg10 mi
5:50 am43 °FPassing clouds.7 mph100%29.71 "HgN/A
4:50 am36 °FClear.2 mph100%29.71 "HgN/A
3:50 am39 °FClear.3 mph100%29.71 "HgN/A
2:50 am41 °FClear.3 mph100%29.71 "HgN/A
1:50 am43 °FPassing clouds.3 mph100%29.71 "HgN/A
12:50 am48 °FOvercast.5 mph87%29.71 "HgN/A
11:50 pm
Wed, Oct 16
48 °FOvercast.1 mph94%29.71 "HgN/A
11:21 pm48 °FClear.3 mph94%29.71 "Hg10 mi
10:50 pm46 °FClear.5 mph100%29.68 "Hg10 mi
10:20 pm45 °FClear.2 mph100%29.68 "Hg10 mi
9:50 pm43 °FClear.2 mph100%29.68 "Hg10 mi
9:20 pm41 °FClear.2 mph100%29.68 "Hg10 mi
8:50 pm39 °FClear.1 mph93%29.68 "Hg10 mi
8:20 pm45 °FClear.2 mph87%29.68 "Hg10 mi
7:50 pm46 °FClear.5 mph87%29.65 "Hg10 mi
7:20 pm43 °FPassing clouds.5 mph87%29.65 "HgN/A
6:50 pm46 °FClear.6 mph76%29.65 "Hg10 mi
6:20 pm52 °FClear.3 mph67%29.62 "Hg10 mi
5:50 pm54 °FSunny.3 mph67%29.62 "Hg10 mi
5:20 pm57 °FSunny.7 mph59%29.62 "Hg10 mi
4:50 pm57 °FSunny.5 mph59%29.62 "Hg10 mi
4:20 pm57 °FScattered clouds.8 mph55%29.62 "HgN/A
3:50 pm59 °FScattered clouds.8 mph55%29.62 "HgN/A
3:21 pm59 °FPassing clouds.10 mph55%29.62 "HgN/A
2:50 pm59 °FPassing clouds.10 mph59%29.62 "HgN/A
2:20 pm59 °FScattered clouds.10 mph63%29.62 "HgN/A
1:50 pm57 °FBroken clouds.10 mph67%29.59 "HgN/A
1:20 pm57 °FBroken clouds.12 mph67%29.59 "HgN/A
12:50 pm57 °FBroken clouds.13 mph67%29.59 "HgN/A
12:20 pm57 °FBroken clouds.14 mph67%29.59 "HgN/A
Weather by CustomWeather, © 2019

See weather overview